Tracking 30692 objects as of 16-Jun-2025
HD Live streaming from Space Station
objects crossing your sky now

ONEWEB-0547

Track ONEWEB-0547 now!
10-day predictions
ONEWEB-0547 is classified as:


NORAD ID: 56049
Int'l Code: 2023-043D
Perigee: 1,183.3 km
Apogee: 1,186.5 km
Inclination: 87.9 °
Period: 108.9 minutes
Semi major axis: 7555 km
RCS: Unknown
Launch date: March 26, 2023
Source: United Kingdom (UK)
Launch site: SRIHARIKOTA (SRI)
Your satellite tracking list
Your tracking list is empty




NASA's NSSDC Master Catalog

Two Line Element Set (TLE):
1 56049U 23043D   25167.40872215  .00000029  00000-0  38991-4 0  9991
2 56049  87.9249 316.9309 0002078 100.3322 259.8047 13.21826735110818
Source of the keplerian elements: AFSPC